Home   Weather   Knoxville   Past weeks

Flag for USA Past Weather in Knoxville, Tennessee, USA — Yesterday and Last 2 Weeks

Now
62 °F

Overcast.


Feels Like: 62 °F
Forecast: 52 / 75 °F
Wind: 3 mph from East

Location: McGhee Tyson Airport

Current Time: Apr 25, 2017 at 12:47:34 pm

Latest Report: Apr 25, 2017 at 11:53 am


Visibility: 10 mi

Pressure: 29.79 "Hg

Humidity: 70%

Dew Point: 52 °F

Location of KnoxvilleLocation

Past Weather in Knoxville — Graph

°F

Knoxville Temperature Yesterday

Maximum temperature yesterday: 68 °F (at 3:53 pm)
Minimum temperature yesterday: 52 °F (at 6:53 am)
Average temperature yesterday: 58 °F

High & Low Weather Summary for the Past Weeks

 TemperatureHumidityPressure
High83 °F (Apr 13, 3:53 pm)97% (Apr 17, 11:53 pm)30.31 "Hg (Apr 17, 11:53 pm)
Low50 °F (Apr 14, 6:53 am)12% (Apr 13, 3:53 pm)29.70 "Hg (Apr 25, 12:53 am)
Average66 °F69%30.05 "Hg
* Reported Apr 10 10:53 am — Apr 25 10:53 am, Knoxville, Weather by CustomWeather, © 2017

Note: Actual official high and low records may vary slightly from our data, if they occured in-between our weather recording intervals... More about our weather records

Advertising

Knoxville Weather History for the Previous 24 Hours

Scroll right to see more
 ConditionsComfort  
Time TempWeatherWind HumidityBarometerVisibility
10:53 am
Tue, Apr 25
61 °FOvercast.3 mph72%29.79 "Hg10 mi
9:53 am59 °FMostly cloudy.5 mph81%29.78 "Hg10 mi
8:53 am57 °FPartly sunny.No wind87%29.76 "Hg10 mi
7:53 am54 °FPartly sunny.No wind90%29.75 "Hg10 mi
6:53 am52 °FScattered clouds.6 mph93%29.74 "Hg10 mi
6:18 am53 °FPassing clouds.No wind89%29.76 "Hg10 mi
5:53 am53 °FPassing clouds.3 mph93%29.74 "Hg10 mi
4:53 am53 °FPassing clouds.3 mph89%29.72 "Hg10 mi
3:53 am55 °FPassing clouds.5 mph87%29.71 "Hg10 mi
2:53 am55 °FClear.7 mph87%29.71 "Hg10 mi
1:53 am55 °FClear.9 mph87%29.70 "Hg10 mi
12:53 am57 °FPassing clouds.8 mph83%29.70 "Hg10 mi
11:53 pm
Mon, Apr 24
57 °FPassing clouds.8 mph87%29.71 "Hg10 mi
10:53 pm59 °FPassing clouds.6 mph81%29.73 "Hg10 mi
9:53 pm59 °FPassing clouds.6 mph84%29.74 "Hg10 mi
8:53 pm62 °FPartly cloudy.7 mph75%29.74 "Hg10 mi
7:53 pm64 °FPartly sunny.9 mph70%29.72 "Hg10 mi
6:53 pm66 °FPartly sunny.13 mph65%29.72 "Hg10 mi
5:53 pm67 °FPartly sunny.8 mph63%29.72 "Hg10 mi
4:53 pm67 °FPartly sunny.6 mph63%29.71 "Hg10 mi
3:53 pm68 °FBroken clouds.10 mph61%29.72 "Hg10 mi
2:53 pm67 °FPartly sunny.12 mph61%29.74 "Hg10 mi
1:53 pm66 °FBroken clouds.10 mph63%29.77 "Hg10 mi
1:00 pm64 °FBroken clouds.13 mph68%29.79 "Hg10 mi
Weather by CustomWeather, © 2017

See weather overviewHow to use our weather pages